Regional Weather Roundup
Issued by NWS New Orleans/Baton Rouge, LA

Home | Current Version | Previous Version | Text Only | Print | Product List | Glossary On
Versions: 1 2 3 4 5 6 7 8 9 10 11 12 13 14 15 16 17 18 19 20 21 22 23 24 25 26 27 28 29 30 31 32 33 34 35 36 37 38 39 40 41 42 43 44 45 46 47 48 49 50
995
ASUS44 KLIX 261406
RWRLIX
NEW ORLEANS REGIONAL WEATHER ROUNDUP
NATIONAL WEATHER SERVICE NEW ORLEANS LA
900 AM CDT SAT MAY 26 2018

NOTE: "FAIR" INDICATES FEW OR NO CLOUDS BELOW 12,000 FEET WITH NO
      SIGNIFICANT WEATHER AND/OR OBSTRUCTIONS TO VISIBILITY.
      SKY/WX - SKY CONDITION AND SIGNIFICANT WEATHER.
      TMP - AIR TEMPERATURE.     DP    - DEWPOINT TEMPERATURE.
      RH  - RELATIVE HUMIDITY.   PRES  - PRESSURE.
      HI  - HEAT INDEX.          WCI   - WIND CHILL INDEX.

*  THESE STATIONS ARE NOT NWS OR FAA STATIONS AND ARE NOT UNDER
   NWS QUALITY CONTROL.

LAZ038-040-048-061>063-065>067-069-261500-
SOUTHEAST LOUISIANA

CITY           SKY/WX    TMP DP  RH WIND       PRES   REMARKS
N.O. INTL ARPT FAIR      82  72  71 N3        29.91R
N.O. LAKEFRONT FAIR      82  71  69 NW5       29.92R
N.O. DOWNTOWN* FAIR      82  71  69 CALM      29.93R
RESERVE*         N/A     89  76  65 CALM      29.91S HX 100
SLIDELL        FAIR      80  72  76 NE6       29.92R
BATON ROUGE    FAIR      79  73  82 SE3       29.91S
BOOTHVILLE     FAIR      83  74  74 VRB3      29.92R
BELLE CHASSE   PTSUNNY   82  73  74 CALM      29.91R
BOGALUSA*      CLOUDY    75  72  91 E5        29.94R
GALLIANO*      FAIR      82  71  69 CALM      29.91S
NEW ROADS*     FAIR      81  74  78 CALM      29.91S
GONZALES*      FAIR      80  72  76 W3        29.91R
HAMMOND*       FAIR      77  72  83 CALM      29.92R
HOUMA*         MOSUNNY   81  73  78 CALM      29.91S
PORT FOURCHON* PTSUNNY   82  72  69 NW5       29.91R

$$

MSZ070-080>082-261500-
SOUTHERN MISSISSIPPI

CITY           SKY/WX    TMP DP  RH WIND       PRES   REMARKS
MCCOMB         FAIR      76  71  85 W3        29.93R
GULFPORT       FAIR      80  72  76 N5        29.91S
BILOXI         FAIR      75  73  91 NE5       29.92R
PASCAGOULA     FAIR      81  71  71 MISG      29.92S
STENNIS ARPT*  MOSUNNY   79  73  83 VRB5      29.93R

$$

COASTAL OBSERVATIONS
LAKE AND NEARSHORE STATIONS

STATION/POSITION TIME  SKY/WX   TEMP    WIND        PRES    WAVE
                                AIR SEA DIR/SP/G            HT/PER
                 (UTC)          (F)     (DEG/KT/KT) (MB)    (FT/S)
WAVELAND YACHT   1348            79 83   20/  5/  6 1013.0
GRAND ISLE       1348            81 85  350/  3/  4 1012.7
SOUTHWEST PASS   1348            85 78   50/  6/  7 1013.1
NEW CANAL        1348               84  310/  2/  4 1012.9
SHELL BEACH      1348            79 87  340/  3/  4 1013.1

OFFSHORE STATIONS

STATION/POSITION TIME  SKY/WX   TEMP    WIND        PRES    WAVE
                                AIR SEA DIR/SP/G            HT/PER
                 (UTC)          (F)     (DEG/KT/KT) (MB)    (FT/S)
64 S DAUPHIN ISL 1350               85   30/  6/  8 1012.7    2/ 7

$$





USA.gov is the U.S. government's official web portal to all federal, state and local government web resources and services.